TimeCDT,TemperatureF,Dew PointF,Humidity,Sea Level PressureIn,VisibilityMPH,Wind Direction,Wind SpeedMPH,Gust SpeedMPH,PrecipitationIn,Events,Conditions,WindDirDegrees,DateUTC
12:53 AM,48.9,43.0,80,30.15,6.0,ESE,4.6,-,N/A,,Haze,110,2013-10-30 05:53:00
1:53 AM,48.0,44.1,86,30.14,5.0,Calm,Calm,-,N/A,,Overcast,0,2013-10-30 06:53:00
2:53 AM,46.9,42.1,83,30.12,5.0,SSW,5.8,-,N/A,,Haze,200,2013-10-30 07:53:00
3:53 AM,45.0,41.0,86,30.12,5.0,Calm,Calm,-,N/A,,Partly Cloudy,0,2013-10-30 08:53:00
4:44 AM,39.2,37.4,93,30.11,2.5,Calm,Calm,-,N/A,,Clear,0,2013-10-30 09:44:00
4:53 AM,39.9,37.9,93,30.13,3.0,Calm,Calm,-,N/A,,Clear,0,2013-10-30 09:53:00
5:00 AM,41.0,37.4,87,30.11,2.0,Calm,Calm,-,N/A,,Clear,0,2013-10-30 10:00:00
5:37 AM,42.8,39.2,87,30.12,3.0,SSW,4.6,-,N/A,,Scattered Clouds,210,2013-10-30 10:37:00
5:53 AM,44.1,39.9,85,30.14,4.0,SW,4.6,-,N/A,,Clear,220,2013-10-30 10:53:00
6:23 AM,42.8,39.2,87,30.11,2.5,WSW,3.5,-,N/A,,Partly Cloudy,240,2013-10-30 11:23:00
6:32 AM,42.8,39.2,87,30.11,0.8,WSW,3.5,-,N/A,,Mist,240,2013-10-30 11:32:00
6:40 AM,41.0,39.2,93,30.11,0.2,West,3.5,-,N/A,Fog,Fog,270,2013-10-30 11:40:00
6:51 AM,42.8,41.0,93,30.11,0.1,Calm,Calm,-,N/A,Fog,Fog,0,2013-10-30 11:51:00
6:53 AM,42.1,41.0,96,30.12,0.1,Calm,Calm,-,N/A,Fog,Fog,0,2013-10-30 11:53:00
7:53 AM,41.0,41.0,100,30.12,0.1,Calm,Calm,-,N/A,Fog,Fog,0,2013-10-30 12:53:00
8:05 AM,41.0,39.2,93,30.11,0.2,Calm,Calm,-,N/A,Fog,Fog,0,2013-10-30 13:05:00
8:15 AM,42.8,41.0,93,30.12,0.5,Calm,Calm,-,N/A,Fog,Fog,0,2013-10-30 13:15:00
8:34 AM,44.6,42.8,93,30.12,0.8,Calm,Calm,-,N/A,,Mostly Cloudy,0,2013-10-30 13:34:00
8:47 AM,44.6,42.8,93,30.12,1.0,Calm,Calm,-,N/A,,Mostly Cloudy,0,2013-10-30 13:47:00
8:53 AM,45.0,43.0,93,30.13,1.0,Calm,Calm,-,N/A,,Mostly Cloudy,0,2013-10-30 13:53:00
9:53 AM,50.0,46.9,89,30.13,2.0,Calm,Calm,-,N/A,,Overcast,0,2013-10-30 14:53:00
10:53 AM,53.1,48.9,86,30.10,2.0,SE,6.9,-,N/A,,Overcast,130,2013-10-30 15:53:00
11:53 AM,54.0,48.9,83,30.08,2.0,ESE,8.1,-,N/A,,Haze,120,2013-10-30 16:53:00
12:53 PM,54.0,50.0,86,30.04,3.0,SE,9.2,-,N/A,,Overcast,130,2013-10-30 17:53:00
1:19 PM,55.4,50.0,82,30.02,2.0,ESE,8.1,-,N/A,,Haze,120,2013-10-30 18:19:00
1:53 PM,55.0,51.1,86,30.03,2.0,ESE,5.8,-,N/A,,Overcast,120,2013-10-30 18:53:00
2:25 PM,55.4,51.8,88,30.01,1.8,SE,8.1,-,N/A,,Overcast,130,2013-10-30 19:25:00
2:53 PM,54.0,50.0,86,30.00,1.2,ESE,8.1,-,N/A,,Overcast,120,2013-10-30 19:53:00
3:14 PM,53.6,51.8,94,29.97,2.0,SE,11.5,-,N/A,,Overcast,130,2013-10-30 20:14:00
3:53 PM,54.0,51.1,90,29.96,2.0,SE,10.4,-,N/A,,Overcast,130,2013-10-30 20:53:00
4:53 PM,55.0,52.0,89,29.94,2.0,SE,11.5,-,N/A,,Overcast,140,2013-10-30 21:53:00
5:53 PM,55.0,53.1,93,29.93,2.0,South,13.8,-,0.01,Rain,Light Rain,170,2013-10-30 22:53:00
6:53 PM,55.9,54.0,93,29.94,1.8,South,10.4,-,0.08,Rain,Rain,190,2013-10-30 23:53:00
7:53 PM,57.0,55.0,93,29.91,1.8,South,15.0,-,0.16,Rain,Rain,180,2013-10-31 00:53:00
8:30 PM,57.2,55.4,94,29.85,2.5,South,10.4,-,0.09,Rain,Light Rain,180,2013-10-31 01:30:00
8:53 PM,57.0,55.0,93,29.84,2.5,SSE,12.7,-,0.11,Rain,Light Rain,160,2013-10-31 01:53:00
9:03 PM,57.2,55.4,94,29.82,3.0,SSE,11.5,-,0.00,Rain,Light Rain,160,2013-10-31 02:03:00
9:53 PM,57.9,55.9,93,29.79,4.0,SSE,12.7,25.3,0.01,,Overcast,160,2013-10-31 02:53:00
10:13 PM,57.2,57.2,100,29.79,3.0,South,11.5,-,N/A,,Overcast,170,2013-10-31 03:13:00
10:22 PM,57.2,57.2,100,29.78,2.5,SSE,18.4,21.9,N/A,,Overcast,160,2013-10-31 03:22:00
10:48 PM,57.2,57.2,100,29.79,1.5,SSE,11.5,-,N/A,,Overcast,160,2013-10-31 03:48:00
10:53 PM,57.9,57.0,97,29.79,1.5,South,12.7,-,N/A,,Overcast,170,2013-10-31 03:53:00
11:07 PM,57.2,57.2,100,29.78,0.5,South,13.8,-,N/A,Fog,Fog,170,2013-10-31 04:07:00
11:38 PM,57.2,57.2,100,29.76,1.2,South,8.1,-,N/A,,Overcast,170,2013-10-31 04:38:00
11:53 PM,59.0,57.0,93,29.75,1.8,South,6.9,-,N/A,,Overcast,180,2013-10-31 04:53:00